N3PL Weather Reports


Display with metric or nautical units.
time (UTC)temp
F
wind
direction
speed
MPH
gust
MPH
rain 1hr
in
rain 24hr
in
rain mn
in
humidity
%
barometer
mb
20260507191007 63 258 0.0 0.0 0.00 0.00 0.00 31 1004.2
20260507190510 64 288 0.0 0.0 0.00 0.00 0.00 31 1004.2
20260507190013 64 270 0.0 0.0 0.00 0.00 0.00 30 1004.2
20260507185609 64 296 0.0 0.0 0.00 0.00 0.00 31 1004.6
20260507185053 64 305 0.0 0.0 0.00 0.00 0.00 32 1004.6
20260507184605 64 305 0.0 0.0 0.00 0.00 0.00 32 1004.6
20260507184007 64 272 0.0 0.0 0.00 0.00 0.00 30 1004.7
20260507183558 64 272 0.0 0.0 0.00 0.00 0.00 30 1004.7
20260507183102 63 319 0.0 0.0 0.00 0.00 0.00 31 1004.7
20260507182605 63 257 0.0 0.0 0.00 0.00 0.00 32 1004.6
20260507182051 63 287 0.0 0.0 0.00 0.00 0.00 35 1004.6
20260507181539 63 257 0.0 0.0 0.00 0.00 0.00 33 1004.6
20260507181048 63 287 0.0 0.0 0.00 0.00 0.00 33 1004.6
20260507180558 63 287 0.0 0.0 0.00 0.00 0.00 37 1004.6
20260507180100 63 332 0.0 0.0 0.00 0.00 0.00 37 1004.6
20260507175604 63 316 0.0 0.0 0.00 0.00 0.00 35 1005.0
20260507175004 63 302 0.0 0.0 0.00 0.00 0.00 35 1005.0
20260507174504 63 291 0.0 0.0 0.00 0.00 0.00 33 1005.0
20260507174007 62 263 0.0 0.0 0.00 0.00 0.00 35 1005.1
20260507173602 62 326 0.0 0.0 0.00 0.00 0.00 34 1005.1
20260507173002 62 308 0.0 0.0 0.00 0.00 0.00 38 1005.1
20260507172506 62 294 0.0 0.0 0.00 0.00 0.00 38 1005.4
20260507172103 62 268 0.0 0.0 0.00 0.00 0.00 33 1005.4
20260507171503 62 264 0.0 0.0 0.00 0.00 0.00 39 1005.4
20260507171007 62 299 0.0 0.0 0.00 0.00 0.00 36 1005.7
20260507170602 62 287 0.0 0.0 0.00 0.00 0.00 37 1005.7
20260507170003 61 285 0.0 0.0 0.00 0.00 0.00 35 1005.7
20260507165505 62 311 0.0 0.0 0.00 0.00 0.00 38 1005.9
20260507165059 62 309 0.0 0.0 0.00 0.00 0.00 40 1005.9
20260507164606 61 309 0.0 0.0 0.00 0.00 0.00 41 1005.9
20260507164003 60 309 0.0 0.0 0.00 0.00 0.00 39 1006.2
20260507163558 60 309 0.0 0.0 0.00 0.00 0.00 41 1006.2
20260507163124 59 308 0.0 0.0 0.00 0.00 0.00 39 1006.2
20260507162604 59 289 0.0 0.0 0.00 0.00 0.00 40 1006.4
20260507162109 59 267 0.0 0.0 0.00 0.00 0.00 44 1006.4
20260507161507 58 319 0.0 0.0 0.00 0.00 0.00 45 1006.4
20260507161006 58 320 0.0 0.0 0.00 0.00 0.00 48 1006.3
20260507160512 58 285 0.0 0.0 0.00 0.00 0.00 44 1006.3
20260507160104 58 243 0.0 0.0 0.00 0.00 0.00 50 1006.3
20260507155504 58 332 0.0 0.0 0.00 0.00 0.00 50 1006.6
20260507155005 57 294 0.0 0.0 0.00 0.00 0.00 51 1006.6
20260507154508 57 294 0.0 0.0 0.00 0.00 0.00 53 1006.6
20260507154102 56 285 0.0 0.0 0.00 0.00 0.00 54 1006.9
20260507153605 56 285 0.0 0.0 0.00 0.00 0.00 56 1006.9
20260507153003 55 284 0.0 0.0 0.00 0.00 0.00 53 1006.9
20260507152505 55 275 0.0 0.0 0.00 0.00 0.00 53 1007.1
20260507152100 55 325 0.0 0.0 0.00 0.00 0.00 53 1007.1
20260507151604 55 344 0.0 0.0 0.00 0.00 0.00 57 1007.1
20260507151001 54 263 0.0 0.0 0.00 0.00 0.00 56 1007.3
20260507150558 54 330 0.0 0.0 0.00 0.00 0.00 60 1007.3
20260507150101 53 305 0.0 0.0 0.00 0.00 0.00 60 1007.3
20260507145604 53 305 0.0 0.0 0.00 0.00 0.00 58 1007.5
20260507145001 53 323 0.0 0.0 0.00 0.00 0.00 60 1007.5
20260507144615 53 330 0.0 0.0 0.00 0.00 0.00 61 1007.5
20260507144101 53 215 0.0 0.0 0.00 0.00 0.00 63 1007.6
20260507143600 52 216 0.0 0.0 0.00 0.00 0.00 62 1007.6
20260507143049 52 198 0.0 0.0 0.00 0.00 0.00 61 1007.6
20260507142552 52 299 0.0 0.0 0.00 0.00 0.00 62 1007.6
20260507142106 52 278 0.0 0.0 0.00 0.00 0.00 62 1007.6
20260507141502 52 323 0.0 0.0 0.00 0.00 0.00 64 1007.6
20260507141007 52 325 0.0 0.0 0.00 0.00 0.00 68 1007.7
20260507140509 51 325 0.0 0.0 0.00 0.00 0.00 67 1007.7
20260507140104 51 325 0.0 0.0 0.00 0.00 0.00 69 1007.7
20260507135606 51 325 0.0 0.0 0.00 0.00 0.00 70 1007.9
20260507135002 51 313 0.0 0.0 0.00 0.00 0.00 74 1007.9
20260507134506 51 313 0.0 0.0 0.00 0.00 0.00 74 1007.9
20260507134059 51 313 0.0 0.0 0.00 0.00 0.00 73 1007.8
20260507133603 50 313 0.0 0.0 0.00 0.00 0.00 74 1007.8
20260507133004 50 313 0.0 0.0 0.00 0.00 0.00 76 1007.8
20260507132505 50 299 0.0 0.0 0.00 0.00 0.00 76 1007.8
20260507132059 50 325 0.0 0.0 0.00 0.00 0.00 79 1007.8
20260507131602 50 325 0.0 0.0 0.00 0.00 0.00 82 1007.8
20260507131106 50 325 0.0 0.0 0.00 0.00 0.00 81 1007.8
20260507130502 50 325 0.0 0.0 0.00 0.00 0.00 82 1007.8
20260507130105 49 325 0.0 0.0 0.00 0.00 0.00 83 1007.8
20260507125559 49 318 0.0 0.0 0.00 0.00 0.00 84 1007.8
20260507125101 49 318 0.0 0.0 0.00 0.00 0.00 86 1007.8
20260507124554 49 318 0.0 0.0 0.00 0.00 0.00 87 1007.8
20260507124059 49 318 0.0 0.0 0.00 0.00 0.00 88 1007.7
20260507123603 49 318 0.0 0.0 0.00 0.00 0.00 90 1007.7
20260507123104 49 318 0.0 0.0 0.00 0.00 0.00 91 1007.7
20260507122502 49 318 0.0 0.0 0.00 0.00 0.00 94 1007.7
20260507122008 49 318 0.0 0.0 0.00 0.00 0.00 95 1007.7
20260507121512 50 318 0.0 0.0 0.00 0.00 0.00 95 1007.7
20260507121106 50 318 0.0 0.0 0.00 0.00 0.00 96 1007.4
20260507120503 50 318 0.0 0.0 0.00 0.00 0.00 96 1007.4
20260507120007 50 318 0.0 0.0 0.00 0.00 0.00 96 1007.4
20260507115603 50 318 0.0 0.0 0.00 0.00 0.00 96 1007.2
20260507115006 50 318 0.0 0.0 0.00 0.00 0.00 96 1007.2
20260507114507 51 318 0.0 0.0 0.00 0.00 0.00 96 1007.2
20260507114100 51 318 0.0 0.0 0.00 0.00 0.00 96 1007.2
20260507113606 51 318 0.0 0.0 0.00 0.00 0.00 96 1007.2
20260507113011 51 318 0.0 0.0 0.00 0.00 0.00 96 1007.2
20260507112558 51 318 0.0 0.0 0.00 0.00 0.00 96 1007.2
20260507112100 50 318 0.0 0.0 0.00 0.00 0.00 96 1007.2
20260507111604 50 318 0.0 0.0 0.00 0.00 0.00 96 1007.2
20260507111004 50 318 0.0 0.0 0.00 0.00 0.00 96 1006.9
20260507110600 50 318 0.0 0.0 0.00 0.00 0.00 96 1006.9
20260507110105 50 318 0.0 0.0 0.00 0.00 0.00 96 1006.9
20260507105503 50 318 0.0 0.0 0.00 0.00 0.00 96 1006.9
20260507105005 50 318 0.0 0.0 0.00 0.00 0.00 96 1006.9
20260507104606 50 318 0.0 0.0 0.00 0.00 0.00 96 1006.9
20260507104101 50 318 0.0 0.0 0.00 0.00 0.00 96 1006.6
20260507103605 50 318 0.0 0.0 0.00 0.00 0.00 96 1006.6
20260507103003 50 318 0.0 0.0 0.00 0.00 0.00 96 1006.6
20260507102504 49 318 0.0 0.0 0.00 0.00 0.00 96 1006.7
20260507102008 49 318 0.0 0.0 0.00 0.00 0.00 96 1006.7
20260507101512 49 318 0.0 0.0 0.00 0.00 0.00 96 1006.7
20260507101004 49 318 0.0 0.0 0.00 0.00 0.00 95 1006.3
20260507100506 49 318 0.0 0.0 0.00 0.00 0.00 95 1006.3
20260507100017 49 318 0.0 0.0 0.00 0.00 0.00 95 1006.3
20260507095606 49 318 0.0 0.0 0.00 0.00 0.00 95 1006.4
20260507095006 49 318 0.0 0.0 0.00 0.00 0.00 95 1006.4
20260507094507 49 318 0.0 0.0 0.00 0.00 0.00 95 1006.4
20260507094010 49 318 0.0 0.0 0.00 0.00 0.00 95 1006.2
20260507093605 49 318 0.0 0.0 0.00 0.00 0.00 95 1006.2
20260507093001 49 318 0.0 0.0 0.00 0.00 0.00 95 1006.2
20260507092503 49 318 0.0 0.0 0.00 0.00 0.00 95 1006.3
20260507092009 49 318 0.0 0.0 0.00 0.00 0.00 95 1006.3
20260507091601 49 318 0.0 0.0 0.00 0.00 0.00 95 1006.3
20260507091103 49 318 0.0 0.0 0.00 0.00 0.00 95 1005.8
20260507090505 49 318 0.0 0.0 0.00 0.00 0.00 94 1005.8
20260507090011 49 318 0.0 0.0 0.00 0.00 0.00 94 1005.8
20260507085601 49 318 0.0 0.0 0.00 0.00 0.00 94 1005.7
20260507085004 49 318 0.0 0.0 0.00 0.00 0.00 94 1005.7
20260507084601 49 318 0.0 0.0 0.00 0.00 0.00 94 1005.7
20260507084107 49 318 0.0 0.0 0.00 0.00 0.00 94 1005.8
20260507083506 49 318 0.0 0.0 0.00 0.00 0.00 94 1005.8
20260507083009 49 318 0.0 0.0 0.00 0.00 0.00 94 1005.8
20260507082605 49 318 0.0 0.0 0.00 0.00 0.00 94 1005.6
20260507082107 50 318 0.0 0.0 0.00 0.00 0.00 94 1005.6
20260507081506 50 318 0.0 0.0 0.00 0.00 0.00 94 1005.6
20260507081005 50 318 0.0 0.0 0.00 0.00 0.00 94 1005.7
20260507080600 50 318 0.0 0.0 0.00 0.00 0.00 94 1005.7
20260507080004 50 318 0.0 0.0 0.00 0.00 0.00 94 1005.7
20260507075508 50 318 0.0 0.0 0.00 0.00 0.00 94 1005.9
20260507075013 51 318 0.0 0.0 0.00 0.00 0.00 94 1005.9
20260507074603 51 318 0.0 0.0 0.00 0.00 0.00 94 1005.9
20260507074105 51 316 0.0 0.0 0.00 0.00 0.00 94 1005.9
20260507073506 51 316 0.0 0.0 0.00 0.00 0.00 94 1005.9
20260507073102 51 316 0.0 0.0 0.00 0.00 0.00 94 1005.9
20260507072600 51 316 0.0 0.0 0.00 0.00 0.00 94 1006.0
20260507072106 51 316 0.0 0.0 0.00 0.00 0.00 94 1006.0
20260507071500 51 316 0.0 0.0 0.00 0.00 0.00 94 1006.0
20260507071054 51 316 0.0 0.0 0.00 0.00 0.00 94 1006.2
20260507070558 51 316 0.0 0.0 0.00 0.00 0.00 93 1006.2
20260507070104 52 312 0.0 0.0 0.00 0.00 0.00 93 1006.2
20260507065603 52 312 0.0 0.0 0.00 0.00 0.00 93 1006.4
20260507065009 52 309 0.0 0.0 0.00 0.00 0.00 93 1006.4
20260507064512 52 308 0.0 0.0 0.00 0.00 0.00 93 1006.4
20260507064003 52 308 0.0 0.0 0.00 0.00 0.00 93 1005.9
20260507063505 52 308 0.0 0.0 0.00 0.00 0.00 93 1005.9
20260507063010 52 294 0.0 0.0 0.00 0.00 0.00 93 1005.9
20260507062512 52 294 0.0 0.0 0.00 0.00 0.00 93 1005.8
20260507062107 52 274 0.0 0.0 0.00 0.00 0.00 93 1005.8
20260507061507 53 278 0.0 0.0 0.00 0.00 0.00 93 1005.8
20260507061015 54 294 0.0 0.0 0.00 0.00 0.00 92 1006.0
20260507060605 54 313 0.0 0.0 0.00 0.00 0.00 93 1006.0
20260507060006 54 312 0.0 0.0 0.00 0.00 0.00 93 1006.0
20260507055517 55 312 0.0 0.0 0.00 0.00 0.00 92 1006.2
20260507055106 55 312 0.0 0.0 0.00 0.00 0.00 92 1006.2
20260507054610 55 312 0.0 0.0 0.00 0.00 0.00 92 1006.2
20260507054001 55 312 0.0 0.0 0.00 0.00 0.00 91 1005.7
20260507053509 55 312 0.0 0.0 0.00 0.00 0.00 90 1005.7
20260507053109 55 312 0.0 0.0 0.00 0.00 0.00 90 1005.7
20260507052604 55 312 0.0 0.0 0.00 0.00 0.00 89 1006.1
20260507052006 55 312 0.0 0.0 0.00 0.00 0.00 88 1006.1
20260507051508 56 282 0.0 0.0 0.00 0.00 0.00 86 1006.1
20260507051101 56 268 0.0 0.0 0.00 0.00 0.00 85 1005.1
20260507050604 56 311 0.0 0.0 0.00 0.00 0.00 84 1005.1
20260507050005 57 285 0.0 0.0 0.00 0.00 0.00 85 1005.1
20260507045559 57 305 0.0 0.0 0.00 0.00 0.00 86 1004.9
20260507045101 58 280 0.0 0.0 0.00 0.00 0.00 88 1004.9
20260507044607 58 328 0.0 0.0 0.00 0.00 0.00 88 1004.9
20260507044001 58 328 0.0 0.0 0.00 0.00 0.00 87 1004.9
20260507043503 58 328 0.0 0.0 0.00 0.00 0.00 87 1004.9
20260507043006 58 328 0.0 0.0 0.00 0.00 0.00 87 1004.9
20260507042509 58 328 0.0 0.0 0.00 0.00 0.00 86 1004.7
20260507042103 59 328 0.0 0.0 0.00 0.00 0.00 86 1004.7
20260507041607 59 328 0.0 0.0 0.00 0.00 0.00 85 1004.7
20260507041002 59 328 0.0 0.0 0.00 0.00 0.00 85 1004.7
20260507040506 59 270 0.0 0.0 0.00 0.00 0.00 84 1004.7
20260507040100 59 320 0.0 0.0 0.00 0.00 0.00 84 1004.7
20260507035603 59 320 0.0 0.0 0.00 0.00 0.00 83 1005.0
20260507035003 59 320 0.0 0.0 0.00 0.00 0.00 83 1005.0
20260507034510 59 320 0.0 0.0 0.00 0.00 0.00 83 1005.0
20260507034105 59 320 0.0 0.0 0.00 0.00 0.00 82 1004.7
20260507033556 60 320 0.0 0.0 0.00 0.00 0.00 82 1004.7
20260507033103 60 320 0.0 0.0 0.00 0.00 0.00 82 1004.7
20260507032608 60 320 0.0 0.0 0.00 0.00 0.00 81 1004.8
20260507032003 60 320 0.0 0.0 0.00 0.00 0.00 81 1004.8
20260507031505 61 320 0.0 0.0 0.00 0.00 0.00 79 1004.8
20260507031058 61 320 0.0 0.0 0.00 0.00 0.00 78 1004.4
20260507030602 61 285 0.0 0.0 0.00 0.00 0.00 78 1004.4
20260507030106 62 285 0.0 0.0 0.00 0.00 0.00 78 1004.4
20260507025501 62 285 0.0 0.0 0.00 0.00 0.00 79 1004.5
20260507025056 62 285 0.0 0.0 0.00 0.00 0.00 80 1004.5
20260507024600 62 285 0.0 0.0 0.00 0.00 0.00 81 1004.5
20260507024102 63 330 0.0 0.0 0.00 0.00 0.00 83 1004.6
20260507023604 63 330 0.0 0.0 0.00 0.00 0.00 84 1004.6
20260507023054 64 322 0.0 0.0 0.00 0.00 0.00 84 1004.6
20260507022556 64 319 0.0 0.0 0.00 0.00 0.00 84 1004.4
20260507022059 64 306 0.0 0.0 0.00 0.00 0.00 84 1004.4
20260507021605 64 306 0.0 0.0 0.00 0.00 0.00 84 1004.4
20260507021002 64 306 0.0 0.0 0.00 0.00 0.00 84 1004.0
20260507020505 65 357 0.0 0.0 0.00 0.00 0.00 82 1004.0
20260507020007 65 359 0.0 0.0 0.00 0.00 0.00 82 1004.0
20260507015559 65 359 0.0 0.0 0.00 0.00 0.00 82 1004.5
20260507015103 65 357 0.0 0.0 0.00 0.00 0.00 82 1004.5
20260507014604 65 359 0.0 0.0 0.00 0.00 0.00 81 1004.5
20260507014001 65 359 0.0 0.0 0.00 0.00 0.00 81 1004.1
20260507013504 65 357 0.0 0.0 0.00 0.00 0.00 81 1004.1
20260507013007 65 359 0.0 0.0 0.00 0.00 0.00 81 1004.1
20260507012511 65 359 0.0 0.0 0.00 0.00 0.00 81 1004.1
20260507012104 65 357 0.0 0.0 0.00 0.00 0.00 81 1004.1
20260507011501 65 359 0.0 0.0 0.00 0.00 0.00 81 1004.1
20260507011007 65 359 0.0 0.0 0.00 0.00 0.00 81 1004.1
20260507010602 65 357 0.0 0.0 0.00 0.00 0.00 81 1004.1
20260507010105 65 359 0.0 0.0 0.00 0.00 0.00 80 1004.1
20260507005502 65 357 0.0 0.0 0.00 0.00 0.00 80 1004.2
20260507005006 65 357 0.0 0.0 0.00 0.00 0.00 80 1004.2
20260507004507 65 359 0.0 0.0 0.00 0.00 0.00 79 1004.2
20260507004011 65 359 0.0 0.0 0.00 0.00 0.00 79 1003.9
20260507003515 65 357 0.0 0.0 0.00 0.00 0.00 79 1003.9
20260507003107 65 359 0.0 0.0 0.00 0.00 0.00 79 1003.9
20260507002552 66 357 0.0 0.0 0.00 0.00 0.00 79 1003.7
20260507002058 66 359 0.0 0.0 0.00 0.00 0.00 79 1003.7
20260507001601 66 359 0.0 0.0 0.00 0.00 0.00 79 1003.7
20260507001104 66 359 0.0 0.0 0.00 0.00 0.00 78 1003.4
20260507000605 66 359 0.0 0.0 0.00 0.00 0.00 78 1003.4
20260507000008 66 357 0.0 0.0 0.00 0.00 0.00 78 1003.4
20260506235556 66 359 0.0 0.0 0.00 0.00 0.00 77 1003.4
20260506235059 66 359 0.0 0.0 0.00 0.00 0.00 77 1003.4
20260506234603 66 357 0.0 0.0 0.00 0.00 0.00 77 1003.4
20260506234003 66 357 0.0 0.0 0.00 0.00 0.00 77 1003.4
20260506233506 66 359 0.0 0.0 0.00 0.00 0.00 77 1003.4
20260506233009 66 359 0.0 0.0 0.00 0.00 0.00 77 1003.4
20260506232600 66 359 0.0 0.0 0.00 0.00 0.00 77 1003.2
20260506232103 66 359 0.0 0.0 0.00 0.00 0.00 76 1003.2
20260506231607 66 359 0.0 0.0 0.00 0.00 0.00 76 1003.2
20260506231001 67 357 0.0 0.0 0.00 0.00 0.00 76 1003.1
20260506230555 67 359 0.0 0.0 0.00 0.00 0.00 75 1003.1
20260506230059 67 359 0.0 0.0 0.00 0.00 0.00 75 1003.1
20260506225603 67 357 0.0 0.0 0.00 0.00 0.00 75 1003.2
20260506225107 67 359 0.0 0.0 0.00 0.00 0.00 75 1003.2
20260506224605 67 359 0.0 0.0 0.00 0.00 0.00 75 1003.2
20260506224057 67 359 0.0 0.0 0.00 0.00 0.00 75 1003.2
20260506223600 67 257 0.0 0.0 0.00 0.00 0.00 74 1003.2
20260506223102 67 257 0.0 0.0 0.00 0.00 0.00 74 1003.2
20260506222509 67 254 0.0 0.0 0.00 0.00 0.00 74 1003.2
20260506222010 67 254 0.0 0.0 0.00 0.00 0.00 74 1003.2
20260506221603 67 254 0.0 0.0 0.00 0.00 0.00 74 1003.2
20260506221107 67 254 0.0 0.0 0.00 0.00 0.00 74 1002.9
20260506220503 67 254 0.0 0.0 0.00 0.00 0.00 73 1002.9
20260506220057 67 254 0.0 0.0 0.00 0.00 0.00 73 1002.9
20260506215559 67 254 0.0 0.0 0.00 0.00 0.00 73 1003.0
20260506215101 67 254 0.0 0.0 0.00 0.00 0.00 73 1003.0
20260506214618 67 254 0.0 0.0 0.00 0.00 0.00 73 1003.0
20260506214003 67 254 0.0 0.0 0.00 0.00 0.00 74 1002.8
20260506213504 67 254 0.0 0.0 0.00 0.00 0.00 73 1002.8
20260506213011 67 254 0.0 0.0 0.00 0.00 0.00 73 1002.8
20260506212600 67 254 0.0 0.0 0.00 0.00 0.00 73 1002.9
20260506212104 67 254 0.0 0.0 0.00 0.00 0.00 73 1002.9
20260506211606 67 254 0.0 0.0 0.00 0.00 0.00 73 1002.9
20260506211003 68 254 0.0 0.0 0.00 0.00 0.00 73 1002.8
20260506210506 68 247 0.0 0.0 0.00 0.00 0.00 73 1002.8
20260506210059 68 247 0.0 0.0 0.00 0.00 0.00 73 1002.8
20260506205603 67 247 0.0 0.0 0.00 0.00 0.00 73 1002.7
20260506205107 67 247 0.0 0.0 0.00 0.00 0.00 75 1002.7
20260506204503 66 247 0.0 0.0 0.00 0.00 0.00 76 1002.7
20260506204057 66 247 0.0 0.0 0.00 0.00 0.00 76 1002.7
20260506203559 66 247 0.0 0.0 0.00 0.00 0.00 77 1002.7
20260506203102 66 247 0.0 0.0 0.00 0.00 0.00 78 1002.7
20260506202605 65 247 0.0 0.0 0.00 0.00 0.00 78 1002.7
20260506202003 65 247 0.0 0.0 0.00 0.00 0.00 79 1002.7
20260506201507 65 247 0.0 0.0 0.00 0.00 0.00 79 1002.7
20260506201007 65 247 0.0 0.0 0.00 0.00 0.00 80 1002.7
20260506200515 65 223 0.0 0.0 0.00 0.00 0.00 80 1002.7
20260506200104 65 265 0.0 0.0 0.00 0.00 0.00 81 1002.7
20260506195502 64 38 0.0 0.0 0.00 0.00 0.00 82 1003.0
20260506195004 64 199 0.0 0.0 0.00 0.00 0.00 84 1003.0
20260506194607 64 199 0.0 0.0 0.00 0.00 0.00 83 1003.0
20260506194105 63 213 0.0 0.0 0.00 0.00 0.00 84 1003.2
20260506193505 63 213 0.0 0.0 0.00 0.00 0.00 84 1003.2
20260506193100 63 198 0.0 0.0 0.00 0.00 0.00 84 1003.2
20260506192600 63 198 0.0 0.0 0.00 0.00 0.00 85 1003.3
20260506192002 63 198 0.0 0.0 0.00 0.00 0.00 85 1003.3
20260506191506 63 172 0.0 0.0 0.00 0.00 0.00 85 1003.3